PRIVATE WETTERSTATION BILLIGHEIM-ALLFELD                       ZURCK
Wetterdaten: Sonntag, 20.03.2016
Datum Zeit Temp. A. Temp. A. min Temp. A. max Feuchte A. Luftdruck Regen Wind Richtung Richtung Sonnenschein ET Solar Taupunkt Windchill Windben Empfang
20.03.2016 00:00 3,4 C 3,4 C 3,5 C 83 % 1020,7 hPa 0,0 l/m 0,0 km/h (0 Bft) N 0 0 min 0,000 mm 0 W/m 0,8 C 3,4 C 0,0 km/h (0 Bft) 100 %
20.03.2016 00:10 3,4 C 3,4 C 3,4 C 82 % 1020,6 hPa 0,0 l/m 0,0 km/h (0 Bft) N 0 0 min 0,000 mm 0 W/m 0,6 C 3,4 C 0,0 km/h (0 Bft) 79 %
20.03.2016 00:20 3,4 C 3,4 C 3,4 C 83 % 1020,6 hPa 0,0 l/m 0,0 km/h (0 Bft) N 0 0 min 0,000 mm 0 W/m 0,8 C 3,4 C 0,0 km/h (0 Bft) 100 %
20.03.2016 00:30 3,3 C 3,3 C 3,4 C 82 % 1020,5 hPa 0,0 l/m 0,0 km/h (0 Bft) N-NW 337 0 min 0,000 mm 0 W/m 0,5 C 3,3 C 1,6 km/h (1 Bft) 100 %
20.03.2016 00:40 3,3 C 3,3 C 3,3 C 82 % 1020,4 hPa 0,0 l/m 0,0 km/h (0 Bft) N 0 0 min 0,000 mm 0 W/m 0,5 C 3,3 C 0,0 km/h (0 Bft) 100 %
20.03.2016 00:50 3,3 C 3,3 C 3,3 C 82 % 1020,5 hPa 0,0 l/m 0,0 km/h (0 Bft) N 0 0 min 0,000 mm 0 W/m 0,5 C 3,3 C 0,0 km/h (0 Bft) 100 %
20.03.2016 01:00 3,3 C 3,3 C 3,3 C 81 % 1020,4 hPa 0,0 l/m 0,0 km/h (0 Bft) N 0 0 min 0,000 mm 0 W/m 0,4 C 3,3 C 0,0 km/h (0 Bft) 100 %
20.03.2016 01:10 3,3 C 3,3 C 3,3 C 82 % 1020,3 hPa 0,0 l/m 0,0 km/h (0 Bft) N 0 0 min 0,000 mm 0 W/m 0,5 C 3,3 C 0,0 km/h (0 Bft) 100 %
20.03.2016 01:20 3,3 C 3,3 C 3,3 C 82 % 1020,2 hPa 0,0 l/m 0,0 km/h (0 Bft) N 0 0 min 0,000 mm 0 W/m 0,5 C 3,3 C 0,0 km/h (0 Bft) 100 %
20.03.2016 01:30 3,2 C 3,2 C 3,3 C 82 % 1020,3 hPa 0,0 l/m 0,0 km/h (0 Bft) N-NW 337 0 min 0,000 mm 0 W/m 0,4 C 3,2 C 1,6 km/h (1 Bft) 100 %
20.03.2016 01:40 3,2 C 3,2 C 3,2 C 81 % 1020,2 hPa 0,0 l/m 0,0 km/h (0 Bft) N-NW 337 0 min 0,000 mm 0 W/m 0,3 C 3,2 C 1,6 km/h (1 Bft) 100 %
20.03.2016 01:50 3,2 C 3,2 C 3,2 C 82 % 1020,2 hPa 0,0 l/m 0,0 km/h (0 Bft) N 0 0 min 0,000 mm 0 W/m 0,4 C 3,2 C 0,0 km/h (0 Bft) 100 %
20.03.2016 02:00 3,2 C 3,2 C 3,2 C 82 % 1020,0 hPa 0,0 l/m 0,0 km/h (0 Bft) N-NW 337 0 min 0,000 mm 0 W/m 0,4 C 3,2 C 1,6 km/h (1 Bft) 100 %
20.03.2016 02:10 3,1 C 3,1 C 3,2 C 83 % 1020,0 hPa 0,0 l/m 0,0 km/h (0 Bft) N-NW 337 0 min 0,000 mm 0 W/m 0,5 C 3,1 C 1,6 km/h (1 Bft) 100 %
20.03.2016 02:20 3,1 C 3,1 C 3,1 C 83 % 1020,0 hPa 0,0 l/m 0,0 km/h (0 Bft) N-NW 337 0 min 0,000 mm 0 W/m 0,5 C 3,1 C 1,6 km/h (1 Bft) 100 %
20.03.2016 02:30 3,1 C 3,1 C 3,1 C 82 % 1019,8 hPa 0,0 l/m 0,0 km/h (0 Bft) N 0 0 min 0,000 mm 0 W/m 0,3 C 3,1 C 0,0 km/h (0 Bft) 100 %
20.03.2016 02:40 3,1 C 3,1 C 3,1 C 83 % 1019,8 hPa 0,0 l/m 0,0 km/h (0 Bft) N-NW 337 0 min 0,000 mm 0 W/m 0,5 C 3,1 C 3,2 km/h (1 Bft) 100 %
20.03.2016 02:50 3,1 C 3,1 C 3,1 C 84 % 1019,7 hPa 0,0 l/m 0,0 km/h (0 Bft) N 0 0 min 0,000 mm 0 W/m 0,7 C 3,1 C 0,0 km/h (0 Bft) 100 %
20.03.2016 03:00 3,0 C 3,0 C 3,1 C 83 % 1019,6 hPa 0,0 l/m 0,0 km/h (0 Bft) N 0 0 min 0,000 mm 0 W/m 0,4 C 3,0 C 0,0 km/h (0 Bft) 100 %
20.03.2016 03:10 2,9 C 2,9 C 3,0 C 83 % 1019,5 hPa 0,0 l/m 0,0 km/h (0 Bft) N 0 0 min 0,000 mm 0 W/m 0,3 C 2,9 C 0,0 km/h (0 Bft) 100 %
20.03.2016 03:20 3,0 C 2,9 C 3,0 C 82 % 1019,4 hPa 0,0 l/m 0,0 km/h (0 Bft) N 0 0 min 0,000 mm 0 W/m 0,2 C 3,0 C 0,0 km/h (0 Bft) 100 %
20.03.2016 03:30 3,1 C 3,0 C 3,1 C 82 % 1019,4 hPa 0,0 l/m 0,0 km/h (0 Bft) N 0 0 min 0,000 mm 0 W/m 0,3 C 3,1 C 0,0 km/h (0 Bft) 100 %
20.03.2016 03:40 3,2 C 3,1 C 3,2 C 81 % 1019,5 hPa 0,0 l/m 0,0 km/h (0 Bft) N-NW 337 0 min 0,000 mm 0 W/m 0,3 C 3,2 C 1,6 km/h (1 Bft) 100 %
20.03.2016 03:50 3,2 C 3,2 C 3,2 C 83 % 1019,3 hPa 0,0 l/m 0,0 km/h (0 Bft) N 0 0 min 0,000 mm 0 W/m 0,6 C 3,2 C 0,0 km/h (0 Bft) 100 %
20.03.2016 04:00 3,1 C 3,1 C 3,2 C 83 % 1019,1 hPa 0,0 l/m 0,0 km/h (0 Bft) N 0 0 min 0,000 mm 0 W/m 0,5 C 3,1 C 0,0 km/h (0 Bft) 100 %
20.03.2016 04:10 3,1 C 3,1 C 3,1 C 84 % 1019,2 hPa 0,0 l/m 0,0 km/h (0 Bft) N 0 0 min 0,000 mm 0 W/m 0,7 C 3,1 C 0,0 km/h (0 Bft) 100 %
20.03.2016 04:20 3,0 C 3,0 C 3,1 C 84 % 1019,1 hPa 0,0 l/m 0,0 km/h (0 Bft) N-NW 337 0 min 0,000 mm 0 W/m 0,6 C 3,0 C 3,2 km/h (1 Bft) 100 %
20.03.2016 04:30 2,9 C 2,9 C 3,0 C 84 % 1019,2 hPa 0,0 l/m 0,0 km/h (0 Bft) N-NW 337 0 min 0,000 mm 0 W/m 0,5 C 2,9 C 3,2 km/h (1 Bft) 100 %
20.03.2016 04:40 2,9 C 2,9 C 2,9 C 84 % 1019,0 hPa 0,0 l/m 0,0 km/h (0 Bft) N 0 0 min 0,000 mm 0 W/m 0,5 C 2,9 C 0,0 km/h (0 Bft) 91 %
20.03.2016 04:50 2,9 C 2,9 C 2,9 C 84 % 1019,1 hPa 0,0 l/m 0,0 km/h (0 Bft) N 0 0 min 0,000 mm 0 W/m 0,5 C 2,9 C 0,0 km/h (0 Bft) 100 %
20.03.2016 05:00 2,9 C 2,8 C 2,9 C 84 % 1019,0 hPa 0,0 l/m 0,0 km/h (0 Bft) N 0 0 min 0,000 mm 0 W/m 0,5 C 2,9 C 0,0 km/h (0 Bft) 100 %
20.03.2016 05:10 2,9 C 2,8 C 2,9 C 83 % 1019,0 hPa 0,0 l/m 0,0 km/h (0 Bft) N 0 0 min 0,000 mm 0 W/m 0,3 C 2,9 C 0,0 km/h (0 Bft) 100 %
20.03.2016 05:20 2,9 C 2,9 C 2,9 C 84 % 1019,0 hPa 0,0 l/m 0,0 km/h (0 Bft) N-NW 337 0 min 0,000 mm 0 W/m 0,5 C 2,9 C 1,6 km/h (1 Bft) 100 %
20.03.2016 05:30 2,9 C 2,8 C 2,9 C 83 % 1018,9 hPa 0,0 l/m 0,0 km/h (0 Bft) N 0 0 min 0,000 mm 0 W/m 0,3 C 2,9 C 0,0 km/h (0 Bft) 100 %
20.03.2016 05:40 2,9 C 2,9 C 2,9 C 84 % 1018,8 hPa 0,0 l/m 0,0 km/h (0 Bft) N-NW 337 0 min 0,000 mm 0 W/m 0,5 C 2,9 C 1,6 km/h (1 Bft) 100 %
20.03.2016 05:50 2,8 C 2,8 C 2,9 C 83 % 1018,8 hPa 0,0 l/m 0,0 km/h (0 Bft) N-NW 337 0 min 0,000 mm 0 W/m 0,2 C 2,8 C 1,6 km/h (1 Bft) 100 %
20.03.2016 06:00 2,8 C 2,8 C 2,8 C 84 % 1018,8 hPa 0,0 l/m 0,0 km/h (0 Bft) N 0 0 min 0,000 mm 0 W/m 0,4 C 2,8 C 0,0 km/h (0 Bft) 100 %
20.03.2016 06:10 2,8 C 2,8 C 2,8 C 84 % 1018,8 hPa 0,0 l/m 0,0 km/h (0 Bft) N 0 0 min 0,000 mm 0 W/m 0,4 C 2,8 C 0,0 km/h (0 Bft) 100 %
20.03.2016 06:20 2,8 C 2,8 C 2,8 C 83 % 1018,8 hPa 0,0 l/m 0,0 km/h (0 Bft) N 0 0 min 0,000 mm 0 W/m 0,2 C 2,8 C 0,0 km/h (0 Bft) 92 %
20.03.2016 06:30 2,8 C 2,8 C 2,8 C 82 % 1018,8 hPa 0,0 l/m 0,0 km/h (0 Bft) N 0 0 min 0,000 mm 0 W/m 0,0 C 2,8 C 0,0 km/h (0 Bft) 100 %
20.03.2016 06:40 2,9 C 2,8 C 2,9 C 83 % 1018,9 hPa 0,0 l/m 0,0 km/h (0 Bft) N-NW 337 0 min 0,000 mm 5 W/m 0,3 C 2,9 C 1,6 km/h (1 Bft) 100 %
20.03.2016 06:50 2,9 C 2,9 C 2,9 C 84 % 1019,0 hPa 0,0 l/m 0,0 km/h (0 Bft) N 0 0 min 0,000 mm 9 W/m 0,5 C 2,9 C 0,0 km/h (0 Bft) 100 %
20.03.2016 07:00 2,9 C 2,9 C 2,9 C 84 % 1019,2 hPa 0,0 l/m 0,0 km/h (0 Bft) N-NW 337 0 min 0,000 mm 14 W/m 0,5 C 2,9 C 1,6 km/h (1 Bft) 100 %
20.03.2016 07:10 2,8 C 2,8 C 2,9 C 83 % 1019,3 hPa 0,0 l/m 0,0 km/h (0 Bft) N 0 0 min 0,000 mm 19 W/m 0,2 C 2,8 C 0,0 km/h (0 Bft) 100 %
20.03.2016 07:20 2,9 C 2,8 C 2,9 C 85 % 1019,1 hPa 0,0 l/m 0,0 km/h (0 Bft) N-NW 337 0 min 0,000 mm 25 W/m 0,6 C 2,9 C 3,2 km/h (1 Bft) 100 %
20.03.2016 07:30 3,1 C 2,9 C 3,1 C 85 % 1019,1 hPa 0,0 l/m 0,0 km/h (0 Bft) N-NW 337 0 min 0,000 mm 32 W/m 0,8 C 3,1 C 3,2 km/h (1 Bft) 100 %
20.03.2016 07:40 3,2 C 3,1 C 3,2 C 84 % 1019,1 hPa 0,0 l/m 0,0 km/h (0 Bft) N-NW 337 0 min 0,000 mm 39 W/m 0,8 C 3,2 C 3,2 km/h (1 Bft) 100 %
20.03.2016 07:50 3,2 C 3,2 C 3,3 C 84 % 1019,2 hPa 0,0 l/m 0,0 km/h (0 Bft) N 0 0 min 0,000 mm 44 W/m 0,8 C 3,2 C 0,0 km/h (0 Bft) 100 %
20.03.2016 08:00 3,4 C 3,3 C 3,4 C 83 % 1019,2 hPa 0,0 l/m 0,0 km/h (0 Bft) N 0 0 min 0,025 mm 47 W/m 0,8 C 3,4 C 0,0 km/h (0 Bft) 100 %
20.03.2016 08:10 3,6 C 3,4 C 3,6 C 82 % 1019,2 hPa 0,0 l/m 0,0 km/h (0 Bft) N-NW 337 0 min 0,000 mm 54 W/m 0,8 C 3,6 C 3,2 km/h (1 Bft) 89 %
20.03.2016 08:20 3,7 C 3,6 C 3,7 C 81 % 1019,3 hPa 0,0 l/m 0,0 km/h (0 Bft) N-NW 337 0 min 0,000 mm 58 W/m 0,7 C 3,7 C 1,6 km/h (1 Bft) 100 %
20.03.2016 08:30 3,8 C 3,7 C 3,8 C 81 % 1019,3 hPa 0,0 l/m 0,0 km/h (0 Bft) N-NW 337 0 min 0,000 mm 67 W/m 0,8 C 3,8 C 3,2 km/h (1 Bft) 100 %
20.03.2016 08:40 4,1 C 3,8 C 4,1 C 81 % 1019,5 hPa 0,0 l/m 0,0 km/h (0 Bft) N-NW 337 0 min 0,000 mm 74 W/m 1,1 C 4,1 C 4,8 km/h (1 Bft) 100 %
20.03.2016 08:50 4,2 C 4,1 C 4,2 C 79 % 1019,5 hPa 0,0 l/m 1,6 km/h (1 Bft) N-NW 337 0 min 0,000 mm 76 W/m 0,9 C 4,2 C 6,4 km/h (2 Bft) 100 %
20.03.2016 09:00 4,3 C 4,2 C 4,3 C 79 % 1019,6 hPa 0,0 l/m 3,2 km/h (1 Bft) NW 315 0 min 0,025 mm 84 W/m 1,0 C 4,3 C 8,0 km/h (2 Bft) 100 %
20.03.2016 09:10 4,4 C 4,3 C 4,4 C 77 % 1019,6 hPa 0,0 l/m 1,6 km/h (1 Bft) NW 315 0 min 0,000 mm 88 W/m 0,7 C 4,4 C 4,8 km/h (1 Bft) 100 %
20.03.2016 09:20 4,5 C 4,4 C 4,5 C 77 % 1019,6 hPa 0,0 l/m 3,2 km/h (1 Bft) NW 315 0 min 0,000 mm 88 W/m 0,8 C 4,5 C 8,0 km/h (2 Bft) 100 %
20.03.2016 09:30 4,6 C 4,5 C 4,6 C 77 % 1019,7 hPa 0,0 l/m 1,6 km/h (1 Bft) NW 315 0 min 0,000 mm 95 W/m 0,9 C 4,6 C 6,4 km/h (2 Bft) 100 %
20.03.2016 09:40 4,6 C 4,6 C 4,6 C 77 % 1019,5 hPa 0,0 l/m 1,6 km/h (1 Bft) NW 315 0 min 0,000 mm 107 W/m 0,9 C 4,6 C 6,4 km/h (2 Bft) 100 %
20.03.2016 09:50 4,7 C 4,6 C 4,7 C 76 % 1019,6 hPa 0,0 l/m 0,0 km/h (0 Bft) NW 315 0 min 0,000 mm 114 W/m 0,8 C 4,7 C 4,8 km/h (1 Bft) 100 %
20.03.2016 10:00 4,8 C 4,7 C 4,8 C 76 % 1019,6 hPa 0,0 l/m 0,0 km/h (0 Bft) NW 315 0 min 0,051 mm 114 W/m 0,9 C 4,8 C 1,6 km/h (1 Bft) 100 %
20.03.2016 10:10 4,8 C 4,8 C 4,8 C 77 % 1019,6 hPa 0,0 l/m 1,6 km/h (1 Bft) N-NW 337 0 min 0,000 mm 116 W/m 1,1 C 4,8 C 4,8 km/h (1 Bft) 97 %
20.03.2016 10:20 5,0 C 4,8 C 5,0 C 77 % 1019,4 hPa 0,0 l/m 1,6 km/h (1 Bft) N-NW 337 0 min 0,000 mm 144 W/m 1,3 C 5,0 C 6,4 km/h (2 Bft) 93 %
20.03.2016 10:30 5,1 C 5,0 C 5,1 C 76 % 1019,4 hPa 0,0 l/m 1,6 km/h (1 Bft) N-NW 337 10 min 0,000 mm 174 W/m 1,2 C 5,1 C 6,4 km/h (2 Bft) 98 %
20.03.2016 10:40 5,1 C 5,1 C 5,1 C 74 % 1019,4 hPa 0,0 l/m 0,0 km/h (0 Bft) N 0 10 min 0,000 mm 183 W/m 0,9 C 5,1 C 0,0 km/h (0 Bft) 99 %
20.03.2016 10:50 5,2 C 5,1 C 5,2 C 74 % 1019,5 hPa 0,0 l/m 1,6 km/h (1 Bft) N-NW 337 10 min 0,000 mm 179 W/m 1,0 C 5,2 C 6,4 km/h (2 Bft) 98 %
20.03.2016 11:00 5,2 C 5,2 C 5,2 C 74 % 1019,3 hPa 0,0 l/m 1,6 km/h (1 Bft) NW 315 10 min 0,076 mm 158 W/m 1,0 C 5,2 C 8,0 km/h (2 Bft) 98 %
20.03.2016 11:10 5,2 C 5,2 C 5,3 C 75 % 1019,3 hPa 0,0 l/m 0,0 km/h (0 Bft) NW 315 10 min 0,000 mm 169 W/m 1,1 C 5,2 C 6,4 km/h (2 Bft) 97 %
20.03.2016 11:20 5,3 C 5,2 C 5,3 C 75 % 1019,2 hPa 0,0 l/m 0,0 km/h (0 Bft) N-NW 337 10 min 0,000 mm 169 W/m 1,2 C 5,3 C 1,6 km/h (1 Bft) 97 %
20.03.2016 11:30 5,3 C 5,2 C 5,3 C 75 % 1019,1 hPa 0,0 l/m 1,6 km/h (1 Bft) NW 315 10 min 0,000 mm 156 W/m 1,2 C 5,3 C 8,0 km/h (2 Bft) 98 %
20.03.2016 11:40 5,3 C 5,3 C 5,4 C 74 % 1019,1 hPa 0,0 l/m 3,2 km/h (1 Bft) NW 315 10 min 0,000 mm 176 W/m 1,0 C 5,3 C 8,0 km/h (2 Bft) 97 %
20.03.2016 11:50 5,4 C 5,3 C 5,4 C 75 % 1019,0 hPa 0,0 l/m 3,2 km/h (1 Bft) W-NW 292 10 min 0,000 mm 176 W/m 1,3 C 5,4 C 8,0 km/h (2 Bft) 98 %
20.03.2016 12:00 5,5 C 5,4 C 5,5 C 74 % 1018,9 hPa 0,0 l/m 3,2 km/h (1 Bft) NW 315 10 min 0,076 mm 179 W/m 1,2 C 5,5 C 8,0 km/h (2 Bft) 97 %
20.03.2016 12:10 5,5 C 5,5 C 5,5 C 74 % 1018,8 hPa 0,0 l/m 0,0 km/h (0 Bft) N-NW 337 10 min 0,000 mm 179 W/m 1,2 C 5,5 C 4,8 km/h (1 Bft) 98 %
20.03.2016 12:20 5,5 C 5,4 C 5,5 C 76 % 1018,8 hPa 0,0 l/m 1,6 km/h (1 Bft) NW 315 10 min 0,000 mm 165 W/m 1,6 C 5,5 C 8,0 km/h (2 Bft) 97 %
20.03.2016 12:30 5,6 C 5,5 C 5,6 C 73 % 1018,7 hPa 0,0 l/m 1,6 km/h (1 Bft) NW 315 10 min 0,000 mm 174 W/m 1,2 C 5,6 C 8,0 km/h (2 Bft) 98 %
20.03.2016 12:40 5,6 C 5,6 C 5,6 C 78 % 1018,7 hPa 0,0 l/m 0,0 km/h (0 Bft) NW 315 10 min 0,000 mm 176 W/m 2,1 C 5,6 C 6,4 km/h (2 Bft) 98 %
20.03.2016 12:50 5,6 C 5,5 C 5,6 C 75 % 1018,6 hPa 0,0 l/m 0,0 km/h (0 Bft) NW 315 10 min 0,000 mm 183 W/m 1,5 C 5,6 C 6,4 km/h (2 Bft) 87 %
20.03.2016 13:00 5,7 C 5,6 C 5,7 C 75 % 1018,5 hPa 0,0 l/m 1,6 km/h (1 Bft) NW 315 10 min 0,076 mm 179 W/m 1,6 C 5,7 C 6,4 km/h (2 Bft) 98 %
20.03.2016 13:10 5,8 C 5,7 C 5,8 C 74 % 1018,5 hPa 0,0 l/m 1,6 km/h (1 Bft) NW 315 10 min 0,000 mm 169 W/m 1,5 C 5,8 C 9,7 km/h (2 Bft) 97 %
20.03.2016 13:20 5,8 C 5,8 C 5,8 C 75 % 1018,5 hPa 0,0 l/m 3,2 km/h (1 Bft) NW 315 10 min 0,000 mm 158 W/m 1,7 C 5,8 C 9,7 km/h (2 Bft) 98 %
20.03.2016 13:30 5,8 C 5,8 C 5,8 C 76 % 1018,4 hPa 0,0 l/m 0,0 km/h (0 Bft) N-NW 337 10 min 0,000 mm 160 W/m 1,9 C 5,8 C 4,8 km/h (1 Bft) 97 %
20.03.2016 13:40 5,8 C 5,8 C 5,8 C 74 % 1018,2 hPa 0,0 l/m 1,6 km/h (1 Bft) N-NW 337 10 min 0,000 mm 179 W/m 1,5 C 5,8 C 8,0 km/h (2 Bft) 98 %
20.03.2016 13:50 5,9 C 5,8 C 5,9 C 74 % 1018,2 hPa 0,0 l/m 1,6 km/h (1 Bft) N-NW 337 10 min 0,000 mm 178 W/m 1,6 C 5,9 C 9,7 km/h (2 Bft) 98 %
20.03.2016 14:00 5,9 C 5,9 C 5,9 C 74 % 1018,2 hPa 0,0 l/m 3,2 km/h (1 Bft) NW 315 10 min 0,076 mm 188 W/m 1,6 C 5,9 C 9,7 km/h (2 Bft) 96 %
20.03.2016 14:10 6,1 C 5,9 C 6,1 C 73 % 1018,1 hPa 0,0 l/m 1,6 km/h (1 Bft) NW 315 10 min 0,000 mm 199 W/m 1,6 C 6,1 C 9,7 km/h (2 Bft) 98 %
20.03.2016 14:20 6,1 C 6,1 C 6,1 C 72 % 1018,2 hPa 0,0 l/m 3,2 km/h (1 Bft) NW 315 10 min 0,000 mm 185 W/m 1,4 C 6,1 C 9,7 km/h (2 Bft) 97 %
20.03.2016 14:30 6,1 C 6,1 C 6,2 C 73 % 1018,0 hPa 0,0 l/m 1,6 km/h (1 Bft) NW 315 10 min 0,000 mm 195 W/m 1,6 C 6,1 C 8,0 km/h (2 Bft) 98 %
20.03.2016 14:40 6,2 C 6,1 C 6,2 C 73 % 1018,0 hPa 0,0 l/m 1,6 km/h (1 Bft) NW 315 10 min 0,000 mm 181 W/m 1,7 C 6,2 C 9,7 km/h (2 Bft) 97 %
20.03.2016 14:50 6,3 C 6,2 C 6,3 C 71 % 1017,8 hPa 0,0 l/m 0,0 km/h (0 Bft) N 0 10 min 0,000 mm 163 W/m 1,4 C 6,3 C 0,0 km/h (0 Bft) 98 %
20.03.2016 15:00 6,2 C 6,2 C 6,3 C 72 % 1017,8 hPa 0,0 l/m 1,6 km/h (1 Bft) NW 315 0 min 0,076 mm 141 W/m 1,5 C 6,2 C 8,0 km/h (2 Bft) 98 %
20.03.2016 15:10 6,2 C 6,2 C 6,3 C 72 % 1017,7 hPa 0,0 l/m 3,2 km/h (1 Bft) NW 315 0 min 0,000 mm 134 W/m 1,5 C 6,2 C 8,0 km/h (2 Bft) 97 %
20.03.2016 15:20 6,3 C 6,2 C 6,3 C 71 % 1017,7 hPa 0,0 l/m 1,6 km/h (1 Bft) N-NW 337 0 min 0,000 mm 125 W/m 1,4 C 6,3 C 8,0 km/h (2 Bft) 99 %
20.03.2016 15:30 6,2 C 6,2 C 6,3 C 71 % 1017,7 hPa 0,0 l/m 0,0 km/h (0 Bft) N-NW 337 0 min 0,000 mm 116 W/m 1,3 C 6,2 C 8,0 km/h (2 Bft) 99 %
20.03.2016 15:40 6,2 C 6,2 C 6,2 C 72 % 1017,6 hPa 0,0 l/m 4,8 km/h (1 Bft) NW 315 0 min 0,000 mm 114 W/m 1,5 C 6,2 C 9,7 km/h (2 Bft) 100 %
20.03.2016 15:50 6,2 C 6,2 C 6,2 C 72 % 1017,5 hPa 0,0 l/m 3,2 km/h (1 Bft) NW 315 0 min 0,000 mm 127 W/m 1,5 C 6,2 C 14,5 km/h (3 Bft) 100 %
20.03.2016 16:00 6,2 C 6,2 C 6,3 C 72 % 1017,7 hPa 0,0 l/m 3,2 km/h (1 Bft) NW 315 0 min 0,051 mm 123 W/m 1,5 C 6,2 C 12,9 km/h (3 Bft) 100 %
20.03.2016 16:10 6,1 C 6,1 C 6,2 C 71 % 1017,5 hPa 0,0 l/m 3,2 km/h (1 Bft) N-NW 337 0 min 0,000 mm 107 W/m 1,2 C 6,1 C 12,9 km/h (3 Bft) 100 %
20.03.2016 16:20 5,9 C 5,9 C 6,1 C 72 % 1017,5 hPa 0,0 l/m 4,8 km/h (1 Bft) NW 315 0 min 0,000 mm 88 W/m 1,2 C 5,9 C 16,1 km/h (3 Bft) 100 %
20.03.2016 16:30 5,8 C 5,8 C 5,9 C 74 % 1017,5 hPa 0,0 l/m 3,2 km/h (1 Bft) N-NW 337 0 min 0,000 mm 70 W/m 1,5 C 5,8 C 12,9 km/h (3 Bft) 100 %
20.03.2016 16:40 5,6 C 5,6 C 5,8 C 74 % 1017,5 hPa 0,0 l/m 0,0 km/h (0 Bft) N-NW 337 0 min 0,000 mm 67 W/m 1,3 C 5,6 C 6,4 km/h (2 Bft) 100 %
20.03.2016 16:50 5,4 C 5,4 C 5,6 C 75 % 1017,5 hPa 0,0 l/m 1,6 km/h (1 Bft) N-NW 337 0 min 0,000 mm 65 W/m 1,3 C 5,4 C 8,0 km/h (2 Bft) 99 %
20.03.2016 17:00 5,3 C 5,3 C 5,4 C 75 % 1017,5 hPa 0,0 l/m 1,6 km/h (1 Bft) N-NW 337 0 min 0,025 mm 63 W/m 1,2 C 5,3 C 9,7 km/h (2 Bft) 99 %
20.03.2016 17:10 5,2 C 5,2 C 5,3 C 75 % 1017,5 hPa 0,0 l/m 0,0 km/h (0 Bft) N-NW 337 0 min 0,000 mm 44 W/m 1,1 C 5,2 C 6,4 km/h (2 Bft) 100 %
20.03.2016 17:20 5,1 C 5,1 C 5,2 C 76 % 1017,6 hPa 0,0 l/m 0,0 km/h (0 Bft) N-NW 337 0 min 0,000 mm 33 W/m 1,2 C 5,1 C 6,4 km/h (2 Bft) 100 %
20.03.2016 17:30 5,1 C 5,1 C 5,1 C 76 % 1017,6 hPa 0,0 l/m 0,0 km/h (0 Bft) N-NW 337 0 min 0,000 mm 28 W/m 1,2 C 5,1 C 4,8 km/h (1 Bft) 100 %
20.03.2016 17:40 4,9 C 4,9 C 5,1 C 75 % 1017,6 hPa 0,0 l/m 3,2 km/h (1 Bft) N-NW 337 0 min 0,000 mm 25 W/m 0,8 C 4,9 C 11,3 km/h (2 Bft) 100 %
20.03.2016 17:50 4,7 C 4,7 C 4,9 C 76 % 1017,7 hPa 0,0 l/m 1,6 km/h (1 Bft) NW 315 0 min 0,000 mm 18 W/m 0,8 C 4,7 C 8,0 km/h (2 Bft) 100 %
20.03.2016 18:00 4,7 C 4,7 C 4,7 C 76 % 1017,8 hPa 0,0 l/m 0,0 km/h (0 Bft) N-NW 337 0 min 0,025 mm 12 W/m 0,8 C 4,7 C 8,0 km/h (2 Bft) 100 %
20.03.2016 18:10 4,5 C 4,5 C 4,7 C 77 % 1017,8 hPa 0,0 l/m 0,0 km/h (0 Bft) NO 45 0 min 0,000 mm 12 W/m 0,8 C 4,5 C 8,0 km/h (2 Bft) 90 %
20.03.2016 18:20 4,4 C 4,4 C 4,5 C 77 % 1017,9 hPa 0,0 l/m 0,0 km/h (0 Bft) N 0 0 min 0,000 mm 12 W/m 0,7 C 4,4 C 0,0 km/h (0 Bft) 100 %
20.03.2016 18:30 4,4 C 4,4 C 4,4 C 77 % 1017,8 hPa 0,0 l/m 0,0 km/h (0 Bft) N-NO 22 0 min 0,000 mm 5 W/m 0,7 C 4,4 C 1,6 km/h (1 Bft) 100 %
20.03.2016 18:40 4,3 C 4,3 C 4,4 C 77 % 1017,8 hPa 0,0 l/m 0,0 km/h (0 Bft) N 0 0 min 0,000 mm 0 W/m 0,6 C 4,3 C 0,0 km/h (0 Bft) 100 %
20.03.2016 18:50 4,3 C 4,3 C 4,3 C 77 % 1017,9 hPa 0,0 l/m 0,0 km/h (0 Bft) N 0 0 min 0,000 mm 0 W/m 0,6 C 4,3 C 0,0 km/h (0 Bft) 100 %
20.03.2016 19:00 4,2 C 4,2 C 4,3 C 77 % 1017,9 hPa 0,0 l/m 0,0 km/h (0 Bft) N 0 0 min 0,000 mm 0 W/m 0,5 C 4,2 C 0,0 km/h (0 Bft) 100 %
20.03.2016 19:10 4,2 C 4,2 C 4,2 C 80 % 1017,9 hPa 0,0 l/m 0,0 km/h (0 Bft) N 0 0 min 0,000 mm 0 W/m 1,1 C 4,2 C 0,0 km/h (0 Bft) 100 %
20.03.2016 19:20 4,1 C 4,1 C 4,2 C 79 % 1017,8 hPa 0,0 l/m 0,0 km/h (0 Bft) N 0 0 min 0,000 mm 0 W/m 0,8 C 4,1 C 0,0 km/h (0 Bft) 100 %
20.03.2016 19:30 3,9 C 3,9 C 4,1 C 80 % 1017,9 hPa 0,0 l/m 0,0 km/h (0 Bft) N 0 0 min 0,000 mm 0 W/m 0,8 C 3,9 C 0,0 km/h (0 Bft) 100 %
20.03.2016 19:40 3,9 C 3,9 C 3,9 C 80 % 1017,9 hPa 0,0 l/m 0,0 km/h (0 Bft) N 0 0 min 0,000 mm 0 W/m 0,8 C 3,9 C 0,0 km/h (0 Bft) 100 %
20.03.2016 19:50 3,8 C 3,8 C 3,9 C 81 % 1017,9 hPa 0,0 l/m 0,0 km/h (0 Bft) N 0 0 min 0,000 mm 0 W/m 0,8 C 3,8 C 0,0 km/h (0 Bft) 100 %
20.03.2016 20:00 3,8 C 3,7 C 3,8 C 82 % 1018,2 hPa 0,0 l/m 0,0 km/h (0 Bft) N 0 0 min 0,000 mm 0 W/m 1,0 C 3,8 C 0,0 km/h (0 Bft) 91 %
20.03.2016 20:10 3,7 C 3,7 C 3,8 C 81 % 1018,2 hPa 0,0 l/m 0,0 km/h (0 Bft) N 0 0 min 0,000 mm 0 W/m 0,7 C 3,7 C 0,0 km/h (0 Bft) 96 %
20.03.2016 20:20 3,7 C 3,7 C 3,8 C 81 % 1018,2 hPa 0,0 l/m 0,0 km/h (0 Bft) N-NO 25 0 min 0,002 mm 0 W/m 0,7 C 3,7 C 0,0 km/h (0 Bft) 99 %
20.03.2016 20:30 3,7 C 3,7 C 3,7 C 81 % 1018,3 hPa 0,0 l/m 0,0 km/h (0 Bft) N-NO 25 0 min 0,000 mm 0 W/m 0,7 C 3,7 C 0,0 km/h (0 Bft) 97 %
20.03.2016 20:40 3,7 C 3,6 C 3,7 C 81 % 1018,2 hPa 0,0 l/m 0,0 km/h (0 Bft) N-NO 25 0 min 0,000 mm 0 W/m 0,7 C 3,7 C 0,0 km/h (0 Bft) 97 %
20.03.2016 20:50 3,7 C 3,7 C 3,7 C 81 % 1018,4 hPa 0,0 l/m 0,0 km/h (0 Bft) N-NO 25 0 min 0,000 mm 0 W/m 0,7 C 3,7 C 0,0 km/h (0 Bft) 89 %
20.03.2016 21:00 3,6 C 3,6 C 3,7 C 82 % 1018,5 hPa 0,0 l/m 0,0 km/h (0 Bft) N-NO 25 0 min 0,000 mm 0 W/m 0,8 C 3,6 C 0,0 km/h (0 Bft) 97 %
20.03.2016 21:10 3,6 C 3,6 C 3,6 C 82 % 1018,4 hPa 0,0 l/m 0,0 km/h (0 Bft) N 0 0 min 0,000 mm 0 W/m 0,8 C 3,6 C 0,0 km/h (0 Bft) 100 %
20.03.2016 21:20 3,6 C 3,6 C 3,6 C 82 % 1018,2 hPa 0,0 l/m 0,0 km/h (0 Bft) N-NO 22 0 min 0,000 mm 0 W/m 0,8 C 3,6 C 1,6 km/h (1 Bft) 100 %
20.03.2016 21:30 3,6 C 3,6 C 3,6 C 81 % 1018,3 hPa 0,0 l/m 0,0 km/h (0 Bft) N 0 0 min 0,000 mm 0 W/m 0,7 C 3,6 C 0,0 km/h (0 Bft) 100 %
20.03.2016 21:40 3,6 C 3,6 C 3,6 C 82 % 1018,2 hPa 0,0 l/m 0,0 km/h (0 Bft) N 0 0 min 0,000 mm 0 W/m 0,8 C 3,6 C 0,0 km/h (0 Bft) 100 %
20.03.2016 21:50 3,6 C 3,6 C 3,6 C 83 % 1018,1 hPa 0,0 l/m 0,0 km/h (0 Bft) N-NO 22 0 min 0,000 mm 0 W/m 1,0 C 3,6 C 3,2 km/h (1 Bft) 100 %
20.03.2016 22:00 3,5 C 3,5 C 3,6 C 83 % 1018,2 hPa 0,0 l/m 1,6 km/h (1 Bft) O-NO 67 0 min 0,000 mm 0 W/m 0,9 C 3,5 C 4,8 km/h (1 Bft) 100 %
20.03.2016 22:10 3,5 C 3,5 C 3,6 C 82 % 1018,3 hPa 0,0 l/m 1,6 km/h (1 Bft) O-SO 112 0 min 0,000 mm 0 W/m 0,7 C 3,5 C 4,8 km/h (1 Bft) 100 %
20.03.2016 22:20 3,6 C 3,5 C 3,6 C 82 % 1018,4 hPa 0,0 l/m 0,0 km/h (0 Bft) SO 135 0 min 0,000 mm 0 W/m 0,8 C 3,6 C 3,2 km/h (1 Bft) 100 %
20.03.2016 22:30 3,6 C 3,6 C 3,6 C 82 % 1018,4 hPa 0,0 l/m 0,0 km/h (0 Bft) N 0 0 min 0,000 mm 0 W/m 0,8 C 3,6 C 0,0 km/h (0 Bft) 100 %
20.03.2016 22:40 3,6 C 3,6 C 3,6 C 82 % 1018,2 hPa 0,0 l/m 3,2 km/h (1 Bft) SO 135 0 min 0,000 mm 0 W/m 0,8 C 3,6 C 6,4 km/h (2 Bft) 100 %
20.03.2016 22:50 3,6 C 3,6 C 3,6 C 82 % 1018,2 hPa 0,0 l/m 1,6 km/h (1 Bft) S-SO 157 0 min 0,000 mm 0 W/m 0,8 C 3,6 C 6,4 km/h (2 Bft) 100 %
20.03.2016 23:00 3,6 C 3,6 C 3,6 C 83 % 1018,3 hPa 0,0 l/m 1,6 km/h (1 Bft) S 180 0 min 0,000 mm 0 W/m 1,0 C 3,6 C 4,8 km/h (1 Bft) 100 %
20.03.2016 23:10 3,6 C 3,6 C 3,6 C 83 % 1018,4 hPa 0,0 l/m 0,0 km/h (0 Bft) S 180 0 min 0,000 mm 0 W/m 1,0 C 3,6 C 3,2 km/h (1 Bft) 100 %
20.03.2016 23:20 3,6 C 3,6 C 3,6 C 83 % 1018,5 hPa 0,0 l/m 0,0 km/h (0 Bft) N 0 0 min 0,000 mm 0 W/m 1,0 C 3,6 C 0,0 km/h (0 Bft) 100 %
20.03.2016 23:30 3,6 C 3,6 C 3,6 C 83 % 1018,7 hPa 0,0 l/m 0,0 km/h (0 Bft) N 0 0 min 0,000 mm 0 W/m 1,0 C 3,6 C 0,0 km/h (0 Bft) 100 %
20.03.2016 23:40 3,6 C 3,6 C 3,6 C 83 % 1018,6 hPa 0,0 l/m 0,0 km/h (0 Bft) N 0 0 min 0,000 mm 0 W/m 1,0 C 3,6 C 0,0 km/h (0 Bft) 100 %
20.03.2016 23:50 3,6 C 3,5 C 3,6 C 83 % 1018,6 hPa 0,0 l/m 0,0 km/h (0 Bft) N 0 0 min 0,000 mm 0 W/m 1,0 C 3,6 C 0,0 km/h (0 Bft) 100 %
_ Min-Zeit 05:00 05:00 06:00 14:50 15:50 - 00:00 - - - - - 06:30 05:50 00:00 00:10
Minimum _ 2,8 C 2,8 C 2,8 C 71 % 1017,5 hPa - 0,0 km/h (0 Bft) - - - - - 0,0 C 2,8 C 0,0 km/h (0 Bft) 79 %
_ Max-Zeit 14:50 14:50 14:50 07:20 00:00 00:00 15:40 - - 10:30 11:00 14:10 12:40 14:50 16:20 00:20
Maximum _ 6,3 C 6,2 C 6,3 C 85 % 1020,7 hPa 0,0 l/m 4,8 km/h
NW (1 Bft)
- - 10 min 0,076 mm 199 W/m 2,1 C 6,3 C 16,1 km/h
N-NW (3 Bft)
100 %
Durchschnitt _ 4,2 C 4,2 C 4,2 C 79 % 1018,8 hPa #0,0 l/m 0,7 km/h (0 Bft) NW - #4:30 h #0,584 mm 108 W/m 0,9 C 4,2 C 3,7 km/h (1 Bft) 99 %
PRIVATE WETTERSTATION BILLIGHEIM-ALLFELD - www.neckar-odenwald-wetter.de - Holger Sonntag